Year,Month,Day,Hour,Minute,Value (Times are PST for temperature in C)
2015,06,08,00,00,20.20
2015,06,08,00,01,20.20
2015,06,08,00,02,20.10
2015,06,08,00,03,20.10
2015,06,08,00,04,20.10
2015,06,08,00,05,20.10
2015,06,08,00,06,20.10
2015,06,08,00,07,20.00
2015,06,08,00,08,20.00
2015,06,08,00,09,20.00
2015,06,08,00,10,20.00
2015,06,08,00,11,19.90
2015,06,08,00,12,19.90
2015,06,08,00,13,19.90
2015,06,08,00,14,19.90
2015,06,08,00,15,19.90
2015,06,08,00,16,19.90
2015,06,08,00,17,19.80
2015,06,08,00,18,19.80
2015,06,08,00,19,19.80
2015,06,08,00,20,19.80
2015,06,08,00,21,19.80
2015,06,08,00,22,19.70
2015,06,08,00,23,19.70
2015,06,08,00,24,19.70
2015,06,08,00,25,19.70
2015,06,08,00,26,19.70
2015,06,08,00,27,19.70
2015,06,08,00,28,19.70
2015,06,08,00,29,19.60
2015,06,08,00,30,19.60
2015,06,08,00,31,19.60
2015,06,08,00,32,19.60
2015,06,08,00,33,19.50
2015,06,08,00,34,19.50
2015,06,08,00,35,19.50
2015,06,08,00,36,19.50
2015,06,08,00,37,19.40
2015,06,08,00,38,19.40
2015,06,08,00,39,19.40
2015,06,08,00,40,19.40
2015,06,08,00,41,19.30
2015,06,08,00,42,19.30
2015,06,08,00,43,19.30
2015,06,08,00,44,19.20
2015,06,08,00,45,19.20
2015,06,08,00,46,19.10
2015,06,08,00,47,19.10
2015,06,08,00,48,19.10
2015,06,08,00,49,19.00
2015,06,08,00,50,19.00
2015,06,08,00,51,19.00
2015,06,08,00,52,18.90
2015,06,08,00,53,18.90
2015,06,08,00,54,18.80
2015,06,08,00,55,18.80
2015,06,08,00,56,18.80
2015,06,08,00,57,18.80
2015,06,08,00,58,18.70
2015,06,08,00,59,18.70
2015,06,08,01,00,18.60
2015,06,08,01,01,18.60
2015,06,08,01,02,18.50
2015,06,08,01,03,18.50
2015,06,08,01,04,18.40
2015,06,08,01,05,18.40
2015,06,08,01,06,18.30
2015,06,08,01,07,18.30
2015,06,08,01,08,18.20
2015,06,08,01,09,18.10
2015,06,08,01,10,18.00
2015,06,08,01,11,17.90
2015,06,08,01,12,17.80
2015,06,08,01,13,17.80
2015,06,08,01,14,17.70
2015,06,08,01,15,17.60
2015,06,08,01,16,17.50
2015,06,08,01,17,17.40
2015,06,08,01,18,17.40
2015,06,08,01,19,17.30
2015,06,08,01,20,17.30
2015,06,08,01,21,17.20
2015,06,08,01,22,17.20
2015,06,08,01,23,17.20
2015,06,08,01,24,17.20
2015,06,08,01,25,17.10
2015,06,08,01,26,17.10
2015,06,08,01,27,17.10
2015,06,08,01,28,17.10
2015,06,08,01,29,17.00
2015,06,08,01,30,17.00
2015,06,08,01,31,17.00
2015,06,08,01,32,16.90
2015,06,08,01,33,16.90
2015,06,08,01,34,16.90
2015,06,08,01,35,16.90
2015,06,08,01,36,16.90
2015,06,08,01,37,16.90
2015,06,08,01,38,16.90
2015,06,08,01,39,16.90
2015,06,08,01,40,16.90
2015,06,08,01,41,16.90
2015,06,08,01,42,17.00
2015,06,08,01,43,17.00
2015,06,08,01,44,17.00
2015,06,08,01,45,17.00
2015,06,08,01,46,17.00
2015,06,08,01,47,17.00
2015,06,08,01,48,17.10
2015,06,08,01,49,17.10
2015,06,08,01,50,17.10
2015,06,08,01,51,17.10
2015,06,08,01,52,17.10
2015,06,08,01,53,17.10
2015,06,08,01,54,17.10
2015,06,08,01,55,17.10
2015,06,08,01,56,17.00
2015,06,08,01,57,17.00
2015,06,08,01,58,17.00
2015,06,08,01,59,17.00
2015,06,08,02,00,16.90
2015,06,08,02,01,16.90
2015,06,08,02,02,16.90
2015,06,08,02,03,16.90
2015,06,08,02,04,16.90
2015,06,08,02,05,16.90
2015,06,08,02,06,16.90
2015,06,08,02,07,16.90
2015,06,08,02,08,16.90
2015,06,08,02,09,16.90
2015,06,08,02,10,16.90
2015,06,08,02,11,16.90
2015,06,08,02,12,16.90
2015,06,08,02,13,16.90
2015,06,08,02,14,16.90
2015,06,08,02,15,16.90
2015,06,08,02,16,16.90
2015,06,08,02,17,16.90
2015,06,08,02,18,16.90
2015,06,08,02,19,16.90
2015,06,08,02,20,16.90
2015,06,08,02,21,16.90
2015,06,08,02,22,16.90
2015,06,08,02,23,16.90
2015,06,08,02,24,16.90
2015,06,08,02,25,16.90
2015,06,08,02,26,16.90
2015,06,08,02,27,16.90
2015,06,08,02,28,16.90
2015,06,08,02,29,16.90
2015,06,08,02,30,16.90
2015,06,08,02,31,17.00
2015,06,08,02,32,17.00
2015,06,08,02,33,17.00
2015,06,08,02,34,17.00
2015,06,08,02,35,17.00
2015,06,08,02,36,17.00
2015,06,08,02,37,17.00
2015,06,08,02,38,17.00
2015,06,08,02,39,17.00
2015,06,08,02,40,17.00
2015,06,08,02,41,17.00
2015,06,08,02,42,16.90
2015,06,08,02,43,16.90
2015,06,08,02,44,16.90
2015,06,08,02,45,16.90
2015,06,08,02,46,16.90
2015,06,08,02,47,16.90
2015,06,08,02,48,16.80
2015,06,08,02,49,16.80
2015,06,08,02,50,16.80
2015,06,08,02,51,16.80
2015,06,08,02,52,16.80
2015,06,08,02,53,16.80
2015,06,08,02,54,16.80
2015,06,08,02,55,16.90
2015,06,08,02,56,16.90
2015,06,08,02,57,16.90
2015,06,08,02,58,16.90
2015,06,08,02,59,17.00
2015,06,08,03,00,17.00
2015,06,08,03,01,17.00
2015,06,08,03,02,17.10
2015,06,08,03,03,17.10
2015,06,08,04,02,16.20
2015,06,08,04,03,16.20
2015,06,08,04,04,16.20
2015,06,08,04,05,16.10
2015,06,08,04,06,16.10
2015,06,08,04,07,16.10
2015,06,08,04,08,16.10
2015,06,08,04,09,16.10
2015,06,08,04,10,16.00
2015,06,08,04,11,16.00
2015,06,08,04,12,16.00
2015,06,08,04,13,15.90
2015,06,08,04,14,15.90
2015,06,08,04,15,15.90
2015,06,08,04,16,15.90
2015,06,08,04,17,15.90
2015,06,08,04,18,15.90
2015,06,08,04,19,15.90
2015,06,08,04,20,15.90
2015,06,08,04,21,15.90
2015,06,08,04,22,15.90
2015,06,08,04,23,15.90
2015,06,08,04,24,15.80
2015,06,08,04,25,15.80
2015,06,08,04,26,15.80
2015,06,08,04,27,15.80
2015,06,08,04,28,15.80
2015,06,08,04,29,15.80
2015,06,08,04,30,15.80
2015,06,08,04,31,15.80
2015,06,08,04,32,15.80
2015,06,08,04,33,15.80
2015,06,08,04,34,15.80
2015,06,08,04,35,15.80
2015,06,08,04,36,15.70
2015,06,08,04,37,15.70
2015,06,08,04,38,15.70
2015,06,08,04,39,15.70
2015,06,08,04,40,15.70
2015,06,08,04,41,15.70
2015,06,08,04,42,15.70
2015,06,08,04,43,15.70
2015,06,08,04,44,15.70
2015,06,08,04,45,15.60
2015,06,08,04,46,15.60
2015,06,08,04,47,15.60
2015,06,08,04,48,15.60
2015,06,08,04,49,15.60
2015,06,08,04,50,15.60
2015,06,08,04,51,15.60
2015,06,08,04,52,15.50
2015,06,08,04,53,15.50
2015,06,08,04,54,15.50
2015,06,08,04,55,15.50
2015,06,08,04,56,15.50
2015,06,08,04,57,15.40
2015,06,08,04,58,15.40
2015,06,08,04,59,15.40
2015,06,08,05,00,15.40
2015,06,08,05,01,15.40
2015,06,08,05,02,15.40
2015,06,08,05,03,15.40
2015,06,08,05,04,15.40
2015,06,08,05,05,15.40
2015,06,08,05,06,15.30
2015,06,08,05,07,15.30
2015,06,08,05,08,15.30
2015,06,08,05,09,15.30
2015,06,08,05,10,15.30
2015,06,08,05,11,15.30
2015,06,08,05,12,15.30
2015,06,08,05,13,15.30
2015,06,08,05,14,15.30
2015,06,08,05,15,15.30
2015,06,08,05,16,15.30
2015,06,08,05,17,15.30
2015,06,08,05,18,15.30
2015,06,08,05,19,15.30
2015,06,08,05,20,15.30
2015,06,08,05,21,15.30
2015,06,08,05,22,15.30
2015,06,08,05,23,15.30
2015,06,08,05,24,15.30
2015,06,08,05,25,15.20
2015,06,08,05,26,15.20
2015,06,08,05,27,15.20
2015,06,08,05,28,15.20
2015,06,08,05,29,15.20
2015,06,08,05,30,15.20
2015,06,08,05,31,15.20
2015,06,08,05,32,15.20
2015,06,08,05,33,15.20
2015,06,08,05,34,15.10
2015,06,08,05,35,15.10
2015,06,08,05,36,15.10
2015,06,08,05,37,15.10
2015,06,08,05,38,15.10
2015,06,08,05,39,15.10
2015,06,08,05,40,15.10
2015,06,08,05,41,15.10
2015,06,08,05,42,15.10
2015,06,08,05,43,15.10
2015,06,08,05,44,15.10
2015,06,08,05,45,15.10
2015,06,08,05,46,15.10
2015,06,08,05,47,15.10
2015,06,08,05,48,15.10
2015,06,08,05,49,15.10
2015,06,08,05,50,15.10
2015,06,08,05,51,15.10
2015,06,08,05,52,15.10
2015,06,08,05,53,15.10
2015,06,08,05,54,15.10
2015,06,08,05,55,15.10
2015,06,08,05,56,15.10
2015,06,08,05,57,15.10
2015,06,08,05,58,15.20
2015,06,08,05,59,15.10
2015,06,08,06,00,15.20
2015,06,08,06,01,15.20
2015,06,08,06,02,15.20
2015,06,08,06,03,15.20
2015,06,08,06,04,15.20
2015,06,08,06,05,15.20
2015,06,08,06,06,15.20
2015,06,08,06,07,15.20
2015,06,08,06,08,15.20
2015,06,08,06,09,15.20
2015,06,08,06,10,15.20
2015,06,08,06,11,15.20
2015,06,08,06,12,15.20
2015,06,08,06,13,15.20
2015,06,08,06,14,15.20
2015,06,08,06,15,15.20
2015,06,08,06,16,15.30
2015,06,08,06,17,15.30
2015,06,08,06,18,15.30
2015,06,08,06,19,15.30
2015,06,08,06,20,15.30
2015,06,08,06,21,15.30
2015,06,08,06,22,15.30
2015,06,08,06,23,15.30
2015,06,08,06,24,15.30
2015,06,08,06,25,15.30
2015,06,08,06,26,15.40
2015,06,08,06,27,15.40
2015,06,08,06,28,15.40
2015,06,08,06,29,15.50
2015,06,08,06,30,15.50
2015,06,08,06,31,15.50
2015,06,08,06,32,15.60
2015,06,08,06,33,15.60
2015,06,08,06,34,15.60
2015,06,08,06,35,15.60
2015,06,08,06,36,15.60
2015,06,08,06,37,15.60
2015,06,08,06,38,15.60
2015,06,08,06,39,15.60
2015,06,08,06,40,15.60
2015,06,08,06,41,15.70
2015,06,08,06,42,15.70
2015,06,08,06,43,15.70
2015,06,08,06,44,15.70
2015,06,08,06,45,15.70
2015,06,08,06,46,15.70
2015,06,08,06,47,15.70
2015,06,08,06,48,15.70
2015,06,08,06,49,15.70
2015,06,08,06,50,15.80
2015,06,08,06,51,15.80
2015,06,08,06,52,15.80
2015,06,08,06,53,15.80
2015,06,08,06,54,15.80
2015,06,08,06,55,15.80
2015,06,08,06,56,15.90
2015,06,08,06,57,15.90
2015,06,08,06,58,15.90
2015,06,08,06,59,15.90
2015,06,08,07,00,15.90
2015,06,08,07,01,15.90
2015,06,08,07,02,15.90
2015,06,08,07,03,16.00
2015,06,08,07,04,16.00
2015,06,08,07,05,16.00
2015,06,08,07,06,16.00
2015,06,08,07,07,16.10
2015,06,08,07,08,16.10
2015,06,08,07,09,16.10
2015,06,08,07,10,16.10
2015,06,08,07,11,16.10
2015,06,08,07,12,16.10
2015,06,08,07,13,16.10
2015,06,08,07,14,16.20
2015,06,08,07,15,16.20
2015,06,08,07,16,16.20
2015,06,08,07,17,16.20
2015,06,08,07,18,16.20
2015,06,08,07,19,16.20
2015,06,08,07,20,16.20
2015,06,08,07,21,16.20
2015,06,08,07,22,16.20
2015,06,08,07,23,16.20
2015,06,08,07,24,16.20
2015,06,08,07,25,16.30
2015,06,08,07,26,16.30
2015,06,08,07,27,16.30
2015,06,08,07,28,16.30
2015,06,08,07,29,16.40
2015,06,08,07,30,16.40
2015,06,08,07,31,16.40
2015,06,08,07,32,16.50
2015,06,08,07,33,16.50
2015,06,08,07,34,16.60
2015,06,08,07,35,16.60
2015,06,08,07,36,16.60
2015,06,08,07,37,16.60
2015,06,08,07,38,16.60
2015,06,08,07,39,16.60
2015,06,08,07,40,16.60
2015,06,08,07,41,16.70
2015,06,08,07,42,16.70
2015,06,08,07,43,16.70
2015,06,08,07,44,16.70
2015,06,08,07,45,16.70
2015,06,08,07,46,16.80
2015,06,08,07,47,16.80
2015,06,08,07,48,16.80
2015,06,08,07,49,16.80
2015,06,08,07,50,16.90
2015,06,08,07,51,16.90
2015,06,08,07,52,16.90
2015,06,08,07,53,16.90
2015,06,08,07,54,16.90
2015,06,08,07,55,17.00
2015,06,08,07,56,17.00
2015,06,08,07,57,17.00
2015,06,08,07,58,17.00
2015,06,08,07,59,17.00
2015,06,08,08,00,17.10
2015,06,08,08,01,17.10
2015,06,08,08,02,17.10
2015,06,08,08,03,17.20
2015,06,08,08,04,17.20
2015,06,08,08,05,17.20
2015,06,08,08,06,17.30
2015,06,08,08,07,17.30
2015,06,08,08,08,17.30
2015,06,08,08,09,17.40
2015,06,08,08,10,17.40
2015,06,08,08,11,17.40
2015,06,08,08,12,17.40
2015,06,08,08,13,17.40
2015,06,08,08,14,17.40
2015,06,08,08,15,17.40
2015,06,08,08,16,17.30
2015,06,08,08,17,17.30
2015,06,08,08,18,17.30
2015,06,08,08,19,17.40
2015,06,08,08,20,17.40
2015,06,08,08,21,17.50
2015,06,08,08,22,17.60
2015,06,08,08,23,17.60
2015,06,08,08,24,17.70
2015,06,08,08,25,17.80
2015,06,08,08,26,17.90
2015,06,08,08,27,17.90
2015,06,08,08,28,17.90
2015,06,08,08,29,17.90
2015,06,08,08,30,17.90
2015,06,08,08,31,17.90
2015,06,08,08,32,17.90
2015,06,08,08,33,17.90
2015,06,08,08,34,17.90
2015,06,08,08,35,17.80
2015,06,08,08,36,17.80
2015,06,08,08,37,17.70
2015,06,08,08,38,17.70
2015,06,08,08,39,17.60
2015,06,08,08,40,17.50
2015,06,08,08,41,17.50
2015,06,08,08,42,17.50
2015,06,08,08,43,17.40
2015,06,08,08,44,17.40
2015,06,08,08,45,17.30
2015,06,08,08,46,17.30
2015,06,08,08,47,17.30
2015,06,08,08,48,17.30
2015,06,08,08,49,17.30
2015,06,08,08,50,17.30
2015,06,08,08,51,17.30
2015,06,08,08,52,17.30
2015,06,08,08,53,17.30
2015,06,08,08,54,17.30
2015,06,08,08,55,17.30
2015,06,08,08,56,17.30
2015,06,08,08,57,17.30
2015,06,08,08,58,17.40
2015,06,08,08,59,17.40
2015,06,08,09,00,17.40
2015,06,08,09,01,17.50
2015,06,08,09,02,17.50
2015,06,08,09,03,17.50
2015,06,08,09,04,17.60
2015,06,08,09,05,17.60
2015,06,08,09,06,17.70
2015,06,08,09,07,17.70
2015,06,08,09,08,17.70
2015,06,08,09,09,17.80
2015,06,08,09,10,17.80
2015,06,08,09,11,17.90
2015,06,08,09,12,17.90
2015,06,08,09,13,17.90
2015,06,08,09,14,17.80
2015,06,08,09,15,17.70
2015,06,08,09,16,17.70
2015,06,08,09,17,17.70
2015,06,08,09,18,17.70
2015,06,08,09,19,17.70
2015,06,08,09,20,17.70
2015,06,08,09,21,17.70
2015,06,08,09,22,17.80
2015,06,08,09,23,17.80
2015,06,08,09,24,17.80
2015,06,08,09,25,17.80
2015,06,08,09,26,17.80
2015,06,08,09,27,17.70
2015,06,08,09,28,17.70
2015,06,08,09,29,17.70
2015,06,08,09,30,17.70
2015,06,08,09,31,17.70
2015,06,08,09,32,17.70
2015,06,08,09,33,17.70
2015,06,08,09,34,17.70
2015,06,08,09,35,17.80
2015,06,08,09,36,17.80
2015,06,08,09,37,17.80
2015,06,08,09,38,17.80
2015,06,08,09,39,17.80
2015,06,08,09,40,17.80
2015,06,08,09,41,17.80
2015,06,08,09,42,17.80
2015,06,08,09,43,17.80
2015,06,08,09,44,17.80
2015,06,08,09,45,17.70
2015,06,08,09,46,17.70
2015,06,08,09,47,17.60
2015,06,08,09,48,17.60
2015,06,08,09,49,17.60
2015,06,08,09,50,17.60
2015,06,08,09,51,17.60
2015,06,08,09,52,17.60
2015,06,08,09,53,17.70
2015,06,08,09,54,17.70
2015,06,08,09,55,17.80
2015,06,08,09,56,17.80
2015,06,08,09,57,17.80
2015,06,08,09,58,17.80
2015,06,08,09,59,17.90
2015,06,08,10,00,18.00
2015,06,08,10,01,18.00
2015,06,08,10,02,18.10
2015,06,08,10,03,18.10
2015,06,08,10,04,18.10
2015,06,08,10,05,18.10
2015,06,08,10,06,18.10
2015,06,08,10,07,18.10
2015,06,08,10,08,18.10
2015,06,08,10,09,18.10
2015,06,08,10,10,18.10
2015,06,08,10,11,18.10
2015,06,08,10,12,18.10
2015,06,08,10,13,18.10
2015,06,08,10,14,18.10
2015,06,08,10,15,18.10
2015,06,08,10,16,18.10
2015,06,08,10,17,18.20
2015,06,08,10,18,18.20
2015,06,08,10,19,18.30
2015,06,08,10,20,18.30
2015,06,08,10,21,18.30
2015,06,08,10,22,18.30
2015,06,08,10,23,18.30
2015,06,08,10,24,18.40
2015,06,08,10,25,18.50
2015,06,08,10,26,18.60
2015,06,08,10,27,18.60
2015,06,08,10,28,18.60
2015,06,08,10,29,18.60
2015,06,08,10,30,18.60
2015,06,08,10,31,18.70
2015,06,08,10,32,18.70
2015,06,08,10,33,18.80
2015,06,08,10,34,18.80
2015,06,08,10,35,18.80
2015,06,08,10,36,18.90
2015,06,08,10,37,18.90
2015,06,08,10,38,18.90
2015,06,08,10,39,18.90
2015,06,08,10,40,18.90
2015,06,08,10,41,18.90
2015,06,08,10,42,18.90
2015,06,08,10,43,18.90
2015,06,08,10,44,19.00
2015,06,08,10,45,19.00
2015,06,08,10,46,19.10
2015,06,08,10,47,19.10
2015,06,08,10,48,19.20
2015,06,08,10,49,19.20
2015,06,08,10,50,19.20
2015,06,08,10,51,19.20
2015,06,08,10,52,19.20
2015,06,08,10,53,19.20
2015,06,08,10,54,19.20
2015,06,08,10,55,19.20
2015,06,08,10,56,19.20
2015,06,08,10,57,19.30
2015,06,08,10,58,19.30
2015,06,08,10,59,19.30
2015,06,08,11,00,19.40
2015,06,08,11,01,19.40
2015,06,08,11,02,19.40
2015,06,08,11,03,19.40
2015,06,08,11,04,19.40
2015,06,08,11,05,19.40
2015,06,08,11,06,19.40
2015,06,08,11,07,19.40
2015,06,08,11,08,19.40
2015,06,08,11,09,19.40
2015,06,08,11,10,19.40
2015,06,08,11,11,19.50
2015,06,08,11,12,19.50
2015,06,08,11,13,19.60
2015,06,08,11,14,19.60
2015,06,08,11,15,19.70
2015,06,08,11,16,19.70
2015,06,08,11,17,19.80
2015,06,08,11,18,19.80
2015,06,08,11,19,19.80
2015,06,08,11,20,19.80
2015,06,08,11,21,19.80
2015,06,08,11,22,19.80
2015,06,08,11,23,19.80
2015,06,08,11,24,19.80
2015,06,08,11,25,19.90
2015,06,08,11,26,19.90
2015,06,08,11,27,20.00
2015,06,08,11,28,20.10
2015,06,08,11,29,20.10
2015,06,08,11,30,20.20
2015,06,08,11,31,20.20
2015,06,08,11,32,20.20
2015,06,08,11,33,20.30
2015,06,08,11,34,20.30
2015,06,08,11,35,20.40
2015,06,08,11,36,20.40
2015,06,08,11,37,20.40
2015,06,08,11,38,20.50
2015,06,08,11,39,20.50
2015,06,08,11,40,20.60
2015,06,08,11,41,20.60
2015,06,08,11,42,20.70
2015,06,08,11,43,20.70
2015,06,08,11,44,20.70
2015,06,08,11,45,20.70
2015,06,08,11,46,20.60
2015,06,08,11,47,20.60
2015,06,08,11,48,20.50
2015,06,08,11,49,20.50
2015,06,08,11,50,20.40
2015,06,08,11,51,20.30
2015,06,08,11,52,20.20
2015,06,08,11,53,20.10
2015,06,08,11,54,20.00
2015,06,08,11,55,20.00
2015,06,08,11,56,19.90
2015,06,08,11,57,19.90
2015,06,08,11,58,20.00
2015,06,08,11,59,20.10
2015,06,08,12,00,20.10
2015,06,08,12,01,20.20
2015,06,08,12,02,20.30
2015,06,08,12,03,20.40
2015,06,08,12,04,20.50
2015,06,08,12,05,20.60
2015,06,08,12,06,20.70
2015,06,08,12,07,20.80
2015,06,08,12,08,20.80
2015,06,08,12,09,20.80
2015,06,08,12,10,20.90
2015,06,08,12,11,21.00
2015,06,08,12,12,21.10
2015,06,08,12,13,21.10
2015,06,08,12,14,21.10
2015,06,08,12,15,21.10
2015,06,08,12,16,21.20
2015,06,08,12,17,21.20
2015,06,08,12,18,21.20
2015,06,08,12,19,21.30
2015,06,08,12,20,21.30
2015,06,08,12,21,21.30
2015,06,08,12,22,21.30
2015,06,08,12,23,21.30
2015,06,08,12,24,21.30
2015,06,08,12,25,21.30
2015,06,08,12,26,21.30
2015,06,08,12,27,21.30
2015,06,08,12,28,21.30
2015,06,08,12,29,21.30
2015,06,08,12,30,21.30
2015,06,08,12,31,21.30
2015,06,08,12,32,21.30
2015,06,08,12,33,21.40
2015,06,08,12,34,21.40
2015,06,08,12,35,21.40
2015,06,08,12,36,21.40
2015,06,08,12,37,21.40
2015,06,08,12,38,21.40
2015,06,08,12,39,21.40
2015,06,08,12,40,21.50
2015,06,08,12,41,21.60
2015,06,08,12,42,21.70
2015,06,08,12,43,21.70
2015,06,08,12,44,21.80
2015,06,08,12,45,21.70
2015,06,08,12,46,21.70
2015,06,08,12,47,21.70
2015,06,08,12,48,21.70
2015,06,08,12,49,21.80
2015,06,08,12,50,21.80
2015,06,08,12,51,21.80
2015,06,08,12,52,21.90
2015,06,08,12,53,21.90
2015,06,08,12,54,21.90
2015,06,08,12,55,21.90
2015,06,08,12,56,22.00
2015,06,08,12,57,22.00
2015,06,08,12,58,22.10
2015,06,08,12,59,22.20
2015,06,08,13,00,22.30
2015,06,08,13,01,22.30
2015,06,08,13,02,22.40
2015,06,08,13,03,22.40
2015,06,08,13,04,22.40
2015,06,08,13,05,22.40
2015,06,08,13,06,22.40
2015,06,08,13,07,22.40
2015,06,08,13,08,22.40
2015,06,08,13,09,22.50
2015,06,08,13,10,22.50
2015,06,08,13,11,22.50
2015,06,08,13,12,22.50
2015,06,08,13,13,22.60
2015,06,08,13,14,22.60
2015,06,08,13,15,22.60
2015,06,08,13,16,22.60
2015,06,08,13,17,22.60
2015,06,08,13,18,22.70
2015,06,08,13,19,22.70
2015,06,08,13,20,22.70
2015,06,08,13,21,22.60
2015,06,08,13,22,22.50
2015,06,08,13,23,22.40
2015,06,08,13,24,22.30
2015,06,08,13,25,22.30
2015,06,08,13,26,22.20
2015,06,08,13,27,22.20
2015,06,08,13,28,22.20
2015,06,08,13,29,22.20
2015,06,08,13,30,22.20
2015,06,08,13,31,22.20
2015,06,08,13,32,22.30
2015,06,08,13,33,22.30
2015,06,08,13,34,22.30
2015,06,08,13,35,22.30
2015,06,08,13,36,22.30
2015,06,08,13,37,22.30
2015,06,08,13,38,22.30
2015,06,08,13,39,22.30
2015,06,08,13,40,22.30
2015,06,08,13,41,22.30
2015,06,08,13,42,22.30
2015,06,08,13,43,22.30
2015,06,08,13,44,22.30
2015,06,08,13,45,22.40
2015,06,08,13,46,22.50
2015,06,08,13,47,22.50
2015,06,08,13,48,22.60
2015,06,08,13,49,22.70
2015,06,08,13,50,22.70
2015,06,08,13,51,22.70
2015,06,08,13,52,22.70
2015,06,08,13,53,22.70
2015,06,08,13,54,22.70
2015,06,08,13,55,22.70
2015,06,08,13,56,22.70
2015,06,08,13,57,22.70
2015,06,08,13,58,22.70
2015,06,08,13,59,22.80
2015,06,08,14,00,22.80
2015,06,08,14,01,22.70
2015,06,08,14,02,22.70
2015,06,08,14,03,22.70
2015,06,08,14,04,22.80
2015,06,08,14,05,22.80
2015,06,08,14,06,22.80
2015,06,08,14,07,22.80
2015,06,08,14,08,22.80
2015,06,08,14,09,22.90
2015,06,08,14,10,22.90
2015,06,08,14,11,23.00
2015,06,08,14,12,23.10
2015,06,08,14,13,23.20
2015,06,08,14,14,23.20
2015,06,08,14,15,23.20
2015,06,08,14,16,23.10
2015,06,08,14,17,23.20
2015,06,08,14,18,23.20
2015,06,08,14,19,23.20
2015,06,08,14,20,23.30
2015,06,08,14,21,23.40
2015,06,08,14,22,23.50
2015,06,08,14,23,23.50
2015,06,08,14,24,23.60
2015,06,08,14,25,23.50
2015,06,08,14,26,23.50
2015,06,08,14,27,23.40
2015,06,08,14,28,23.40
2015,06,08,14,29,23.30
2015,06,08,14,30,23.30
2015,06,08,14,31,23.30
2015,06,08,14,32,23.30
2015,06,08,14,33,23.30
2015,06,08,14,34,23.30
2015,06,08,14,35,23.30
2015,06,08,14,36,23.30
2015,06,08,14,37,23.40
2015,06,08,14,38,23.40
2015,06,08,14,39,23.50
2015,06,08,14,40,23.50
2015,06,08,14,41,23.50
2015,06,08,14,42,23.40
2015,06,08,14,43,23.40
2015,06,08,14,44,23.40
2015,06,08,14,45,23.40
2015,06,08,14,46,23.50
2015,06,08,14,47,23.50
2015,06,08,14,48,23.50
2015,06,08,14,49,23.50
2015,06,08,14,50,23.50
2015,06,08,14,51,23.60
2015,06,08,14,52,23.60
2015,06,08,14,53,23.60
2015,06,08,14,54,23.60
2015,06,08,14,55,23.60
2015,06,08,14,56,23.60
2015,06,08,14,57,23.50
2015,06,08,14,58,23.50
2015,06,08,14,59,23.40
2015,06,08,15,00,23.40
2015,06,08,15,01,23.40
2015,06,08,15,02,23.50
2015,06,08,15,03,23.50
2015,06,08,15,04,23.60
2015,06,08,15,05,23.60
2015,06,08,15,06,23.60
2015,06,08,15,07,23.60
2015,06,08,15,08,23.60
2015,06,08,15,09,23.70
2015,06,08,15,10,23.70
2015,06,08,15,11,23.60
2015,06,08,15,12,23.60
2015,06,08,15,13,23.60
2015,06,08,15,14,23.70
2015,06,08,15,15,23.70
2015,06,08,15,16,23.70
2015,06,08,15,17,23.80
2015,06,08,15,18,23.80
2015,06,08,15,19,23.80
2015,06,08,15,20,23.80
2015,06,08,15,21,23.80
2015,06,08,15,22,23.90
2015,06,08,15,23,23.90
2015,06,08,15,24,23.90
2015,06,08,15,25,23.90
2015,06,08,15,26,23.90
2015,06,08,15,27,23.80
2015,06,08,15,28,23.70
2015,06,08,15,29,23.70
2015,06,08,15,30,23.60
2015,06,08,15,31,23.60
2015,06,08,15,32,23.50
2015,06,08,15,33,23.50
2015,06,08,15,34,23.50
2015,06,08,15,35,23.60
2015,06,08,15,36,23.70
2015,06,08,15,37,23.70
2015,06,08,15,38,23.70
2015,06,08,15,39,23.70
2015,06,08,15,40,23.70
2015,06,08,15,41,23.70
2015,06,08,15,42,23.70
2015,06,08,15,43,23.70
2015,06,08,15,44,23.60
2015,06,08,15,45,23.70
2015,06,08,15,46,23.70
2015,06,08,15,47,23.70
2015,06,08,15,48,23.70
2015,06,08,15,49,23.70
2015,06,08,15,50,23.70
2015,06,08,15,51,23.70
2015,06,08,15,52,23.70
2015,06,08,15,53,23.50
2015,06,08,15,54,23.40
2015,06,08,15,55,23.30
2015,06,08,15,56,23.20
2015,06,08,15,57,23.10
2015,06,08,15,58,23.00
2015,06,08,15,59,22.90
2015,06,08,16,00,22.90
2015,06,08,16,01,22.80
2015,06,08,16,02,22.80
2015,06,08,16,03,22.90
2015,06,08,16,04,23.00
2015,06,08,16,05,23.10
2015,06,08,16,06,23.20
2015,06,08,16,07,23.20
2015,06,08,16,08,23.20
2015,06,08,16,09,23.20
2015,06,08,16,10,23.20
2015,06,08,16,11,23.20
2015,06,08,16,12,23.20
2015,06,08,16,13,23.20
2015,06,08,16,14,23.30
2015,06,08,16,15,23.30
2015,06,08,16,16,23.40
2015,06,08,16,17,23.40
2015,06,08,16,18,23.40
2015,06,08,16,19,23.50
2015,06,08,16,20,23.50
2015,06,08,16,21,23.60
2015,06,08,16,22,23.70
2015,06,08,16,23,23.70
2015,06,08,16,24,23.80
2015,06,08,16,25,23.80
2015,06,08,16,26,23.80
2015,06,08,16,27,23.80
2015,06,08,16,28,23.80
2015,06,08,16,29,23.70
2015,06,08,16,30,23.70
2015,06,08,16,31,23.70
2015,06,08,16,32,23.70
2015,06,08,16,33,23.70
2015,06,08,16,34,23.70
2015,06,08,16,35,23.70
2015,06,08,16,36,23.80
2015,06,08,16,37,23.80
2015,06,08,16,38,23.80
2015,06,08,16,39,23.80
2015,06,08,16,40,23.70
2015,06,08,16,41,23.80
2015,06,08,16,42,23.80
2015,06,08,16,43,23.90
2015,06,08,16,44,24.00
2015,06,08,16,45,24.10
2015,06,08,16,46,24.20
2015,06,08,16,47,24.20
2015,06,08,16,48,24.20
2015,06,08,16,49,24.20
2015,06,08,16,50,24.20
2015,06,08,16,51,24.30
2015,06,08,16,52,24.30
2015,06,08,16,53,24.30
2015,06,08,16,54,24.30
2015,06,08,16,55,24.30
2015,06,08,16,56,24.30
2015,06,08,16,57,24.30
2015,06,08,16,58,24.20
2015,06,08,16,59,24.20
2015,06,08,17,00,24.10
2015,06,08,17,01,24.10
2015,06,08,17,02,24.10
2015,06,08,17,03,24.10
2015,06,08,17,04,24.10
2015,06,08,17,05,24.00
2015,06,08,17,06,24.00
2015,06,08,17,07,23.90
2015,06,08,17,08,23.70
2015,06,08,17,09,23.60
2015,06,08,17,10,23.50
2015,06,08,17,11,23.40
2015,06,08,17,12,23.30
2015,06,08,17,13,23.20
2015,06,08,17,14,23.10
2015,06,08,17,15,23.00
2015,06,08,17,16,22.90
2015,06,08,17,17,22.90
2015,06,08,17,18,22.80
2015,06,08,17,19,22.80
2015,06,08,17,20,22.80
2015,06,08,17,21,22.80
2015,06,08,17,22,22.80
2015,06,08,17,23,22.80
2015,06,08,17,24,22.80
2015,06,08,17,25,22.80
2015,06,08,17,26,22.70
2015,06,08,17,27,22.70
2015,06,08,17,28,22.60
2015,06,08,17,29,22.60
2015,06,08,17,30,22.60
2015,06,08,17,31,22.60
2015,06,08,17,32,22.50
2015,06,08,17,33,22.50
2015,06,08,17,34,22.50
2015,06,08,17,35,22.50
2015,06,08,17,36,22.50
2015,06,08,17,37,22.50
2015,06,08,17,38,22.60
2015,06,08,17,39,22.60
2015,06,08,17,40,22.60
2015,06,08,17,41,22.60
2015,06,08,17,42,22.60
2015,06,08,17,43,22.60
2015,06,08,17,44,22.60
2015,06,08,17,45,22.60
2015,06,08,17,46,22.60
2015,06,08,17,47,22.60
2015,06,08,17,48,22.60
2015,06,08,17,49,22.70
2015,06,08,17,50,22.70
2015,06,08,17,51,22.70
2015,06,08,17,52,22.80
2015,06,08,17,53,22.70
2015,06,08,17,54,22.70
2015,06,08,17,55,22.70
2015,06,08,17,56,22.70
2015,06,08,17,57,22.70
2015,06,08,17,58,22.70
2015,06,08,17,59,22.70
2015,06,08,18,00,22.70
2015,06,08,18,01,22.70
2015,06,08,18,02,22.80
2015,06,08,18,03,22.80
2015,06,08,18,04,22.80
2015,06,08,18,05,22.80
2015,06,08,18,06,22.80
2015,06,08,18,07,22.90
2015,06,08,18,08,22.90
2015,06,08,18,09,22.90
2015,06,08,18,10,22.90
2015,06,08,18,11,22.90
2015,06,08,18,12,22.90
2015,06,08,18,13,22.90
2015,06,08,18,14,22.90
2015,06,08,18,15,23.00
2015,06,08,18,16,23.10
2015,06,08,18,17,23.20